Weather reports worldwide

Advertisment
Napoli/Capodichino, Italy (16289): temperature & dewpoint: 11.10.2019 23:00:00 - 17.10.2019 23:00:00 (CEST)Napoli/Capodichino, Italy (16289): wind speed: 11.10.2019 23:00:00 - 17.10.2019 23:00:00 (CEST)Napoli/Capodichino, Italy (16289): wind direction: 11.10.2019 23:00:00 - 17.10.2019 23:00:00 (CEST)Napoli/Capodichino, Italy (16289): reduced air pressure: 11.10.2019 23:00:00 - 17.10.2019 23:00:00 (CEST)Napoli/Capodichino, Italy (16289): visibility: 11.10.2019 23:00:00 - 17.10.2019 23:00:00 (CEST)Napoli/Capodichino, Italy (16289): precipitation: 11.10.2019 23:00:00 - 17.10.2019 23:00:00 (CEST)
Date & Time tt [°C] td [°C] ff [km/h] ff [kn] dd ppp [hPa] vv [km] rr [mm]
17.10.2019 23:00:00 15,7 12,9 2 1 - 1020,2 10 0,0
17.10.2019 22:00:00 16,0 13,0 4 2 - - 10 -
17.10.2019 21:00:00 17,0 13,0 4 2 E - 10 -
17.10.2019 20:00:00 18,3 13,0 8 4 NW 1020,0 10 -
17.10.2019 19:00:00 19,0 13,0 9 5 WNW - 10 -
17.10.2019 18:00:00 20,0 12,0 13 7 WNW - 10 -
17.10.2019 17:00:00 21,8 12,1 4 2 - 1019,6 10 0,0
17.10.2019 16:00:00 21,0 13,0 8 4 SW - 10 -
17.10.2019 15:00:00 22,0 12,0 8 4 SW - 10 -
17.10.2019 14:00:00 22,3 12,5 4 2 - 1019,9 10 -
17.10.2019 13:00:00 22,0 12,0 4 2 - - 10 -
17.10.2019 12:00:00 20,0 12,0 5 3 ENE - 10 -
17.10.2019 11:00:00 19,4 11,9 5 3 - 1020,9 10 0,0
17.10.2019 10:00:00 17,0 12,0 8 4 NE - 10 -
17.10.2019 09:00:00 15,0 11,0 8 4 NNE - 10 -
17.10.2019 08:00:00 13,6 10,4 9 5 NNE 1019,9 10 -
17.10.2019 07:00:00 14,0 10,0 8 4 N - 10 -
17.10.2019 06:00:00 14,0 10,0 8 4 NE - 10 -
17.10.2019 05:00:00 13,7 10,8 5 3 NNE 1019,7 10 0,0
17.10.2019 04:00:00 14,0 12,0 5 3 NNE - 10 -
17.10.2019 03:00:00 14,0 12,0 5 3 NNE - 10 -
17.10.2019 02:00:00 14,1 11,5 4 2 NNE 1019,9 10 -
17.10.2019 01:00:00 15,0 11,0 4 2 - - 10 -
17.10.2019 00:00:00 14,0 12,0 4 2 NE - 10 -
16.10.2019 23:00:00 16,1 12,3 5 3 E 1019,8 10 0,0
16.10.2019 22:00:00 17,0 13,0 5 3 E - 10 -
16.10.2019 21:00:00 17,0 12,0 5 3 W - 10 -
16.10.2019 20:00:00 17,9 11,8 4 2 - 1019,3 10 -
16.10.2019 19:00:00 18,0 12,0 8 4 W - 10 -
16.10.2019 18:00:00 - - - - - - - -
16.10.2019 17:00:00 20,8 11,5 16 9 W 1018,5 10 0,0
16.10.2019 16:00:00 22,0 12,0 15 8 W - 10 -
16.10.2019 15:00:00 22,0 11,0 15 8 W - 10 -
16.10.2019 14:00:00 22,7 10,9 15 8 W 1018,7 10 -
16.10.2019 13:00:00 21,0 12,0 15 8 WNW - 10 -
16.10.2019 12:00:00 22,0 14,0 18 10 W - 10 -
16.10.2019 11:00:00 21,0 15,3 11 6 W 1019,0 10 0,0
16.10.2019 10:00:00 20,0 17,0 5 3 WNW - 10 -
16.10.2019 09:00:00 19,0 18,0 2 1 - - 10 -
16.10.2019 08:00:00 17,2 16,5 4 2 - 1017,5 10 -
16.10.2019 07:00:00 17,0 16,0 5 3 E - 10 -
16.10.2019 06:00:00 18,0 17,0 9 5 NE - 10 -
16.10.2019 05:00:00 19,0 17,9 8 4 WNW 1016,2 8 0,0
16.10.2019 04:00:00 18,0 17,0 8 4 WSW - 8 -
16.10.2019 03:00:00 18,0 17,0 13 7 NNE - 8 -
16.10.2019 02:00:00 17,6 15,6 8 4 E 1016,6 10 -
16.10.2019 01:00:00 18,0 15,0 9 5 NE - 10 -
16.10.2019 00:00:00 21,0 18,0 9 5 WSW - 10 -
15.10.2019 23:00:00 21,7 17,9 9 5 SSW 1016,7 10 0,0
15.10.2019 22:00:00 22,0 15,0 5 3 SW - 10 -
15.10.2019 21:00:00 22,0 17,0 5 3 - - 10 -
15.10.2019 20:00:00 21,2 15,8 2 1 - 1016,0 10 -
15.10.2019 19:00:00 22,0 15,0 8 4 SW - 10 -
15.10.2019 18:00:00 23,0 13,0 13 7 SW - 10 -
15.10.2019 17:00:00 22,8 13,0 9 5 SW 1016,6 10 0,0
15.10.2019 16:00:00 24,0 14,0 11 6 SSW - 10 -
15.10.2019 15:00:00 24,0 13,0 11 6 SSW - 10 -
15.10.2019 14:00:00 24,2 13,5 13 7 SW 1017,6 10 -
15.10.2019 13:00:00 24,0 13,0 8 4 - - 10 -
15.10.2019 12:00:00 23,0 13,0 4 2 - - 10 -
15.10.2019 11:00:00 21,5 13,1 5 3 NE 1019,1 10 0,0
15.10.2019 10:00:00 19,0 13,0 8 4 NE - 10 -
15.10.2019 09:00:00 16,0 13,0 9 5 NE - 10 -
15.10.2019 08:00:00 15,6 12,3 8 4 NE 1019,0 8 -
15.10.2019 07:00:00 14,0 13,0 5 3 NNE - 8 -
15.10.2019 06:00:00 14,0 13,0 5 3 NNE - 7 -
15.10.2019 05:00:00 13,9 12,8 4 2 N 1019,3 5 0,0
15.10.2019 04:00:00 15,0 13,0 5 3 ENE - 5 -
15.10.2019 03:00:00 15,0 14,0 8 4 NE - 7 -
15.10.2019 02:00:00 15,5 14,5 4 2 N 1019,8 10 -
15.10.2019 01:00:00 16,0 15,0 4 2 NW - 8 -
15.10.2019 00:00:00 17,0 15,0 4 2 ENE - 10 -
14.10.2019 23:00:00 17,9 15,8 4 2 E 1020,6 10 0,0
14.10.2019 22:00:00 18,0 16,0 2 1 ENE - 10 -
14.10.2019 21:00:00 20,0 17,0 5 3 N - 10 -
14.10.2019 20:00:00 20,2 16,4 4 2 - 1020,6 10 -
14.10.2019 19:00:00 20,0 17,0 4 2 - - 10 -
14.10.2019 18:00:00 22,0 17,0 11 6 SSW - 10 -
14.10.2019 17:00:00 22,7 17,2 9 5 SSW 1020,5 10 0,0
14.10.2019 16:00:00 23,0 16,0 11 6 SSW - 10 -
14.10.2019 15:00:00 24,0 16,0 11 6 SSW - 10 -
14.10.2019 14:00:00 23,6 14,7 9 5 SSW 1021,6 10 -
14.10.2019 13:00:00 24,0 15,0 8 4 - - 10 -
14.10.2019 12:00:00 23,0 14,0 4 2 - - 10 -
14.10.2019 11:00:00 21,4 14,6 4 2 - 1023,0 10 0,0
14.10.2019 10:00:00 19,0 15,0 4 2 - - 10 -
14.10.2019 09:00:00 17,0 13,0 4 2 - - 10 -
14.10.2019 08:00:00 14,6 12,6 5 3 - 1022,5 10 -
14.10.2019 07:00:00 14,0 12,0 5 3 NE - 10 -
14.10.2019 06:00:00 14,0 12,0 4 2 N - 10 -
14.10.2019 05:00:00 13,6 12,0 4 2 N 1022,5 - 0,0
14.10.2019 04:00:00 15,0 13,0 2 1 NW - 10 -
14.10.2019 03:00:00 15,0 13,0 5 3 NNE - 10 -
14.10.2019 02:00:00 15,6 13,2 4 2 NE 1023,2 10 -
14.10.2019 01:00:00 16,0 14,0 2 1 - - 10 -
14.10.2019 00:00:00 17,0 14,0 2 1 N - 10 -
13.10.2019 23:00:00 18,2 14,8 4 2 ENE 1023,6 10 0,0
13.10.2019 22:00:00 19,0 15,0 5 3 E - 10 -
13.10.2019 21:00:00 19,0 15,0 5 3 E - 10 -
13.10.2019 20:00:00 19,7 15,1 8 4 NW 1023,3 10 -
13.10.2019 19:00:00 21,0 14,0 8 4 NW - 10 -
13.10.2019 18:00:00 22,0 15,0 5 3 SSW - 10 -
13.10.2019 17:00:00 22,8 15,6 11 6 SSW 1022,7 10 0,0
13.10.2019 16:00:00 24,0 16,0 8 4 S - 10 -
13.10.2019 15:00:00 24,0 15,0 11 6 SSW - 10 -
13.10.2019 14:00:00 24,2 11,2 5 3 - 1023,8 10 -
13.10.2019 13:00:00 23,0 13,0 9 5 N - 10 -
13.10.2019 12:00:00 22,0 14,0 9 5 N - 10 -
13.10.2019 11:00:00 20,8 15,2 4 2 - 1024,9 10 0,0
13.10.2019 10:00:00 18,0 14,0 8 4 NE - 10 -
13.10.2019 09:00:00 16,0 13,0 9 5 NE - 10 -
13.10.2019 08:00:00 14,9 12,7 4 2 NNE 1024,4 10 -
13.10.2019 07:00:00 14,0 13,0 5 3 N - 10 -
13.10.2019 06:00:00 14,0 12,0 5 3 NNE - 10 -
13.10.2019 05:00:00 13,8 12,4 2 1 N 1023,7 10 0,0
13.10.2019 04:00:00 15,0 13,0 4 2 NNW - 10 -
13.10.2019 03:00:00 15,0 12,0 4 2 - - 10 -
13.10.2019 02:00:00 15,8 13,7 5 3 NE 1024,2 10 -
13.10.2019 01:00:00 16,0 14,0 4 2 N - 10 -
13.10.2019 00:00:00 17,0 15,0 2 1 - - 10 -
12.10.2019 23:00:00 18,1 15,3 4 2 ENE 1024,5 10 0,0
12.10.2019 22:00:00 19,0 16,0 5 3 E - 10 -
12.10.2019 21:00:00 19,0 16,0 9 5 NW - 10 -
12.10.2019 20:00:00 20,0 15,3 9 5 NNW 1024,2 10 -
12.10.2019 19:00:00 21,0 14,0 11 6 NW - 10 -
12.10.2019 18:00:00 - - - - - - - -
12.10.2019 17:00:00 23,3 13,7 11 6 NW 1023,9 10 0,0
12.10.2019 16:00:00 24,0 13,0 9 5 SW - 10 -
12.10.2019 15:00:00 25,0 12,0 9 5 SW - 10 -
12.10.2019 14:00:00 24,2 14,0 9 5 SW 1024,1 10 -
12.10.2019 13:00:00 24,0 15,0 5 3 - - 10 -
12.10.2019 12:00:00 23,0 16,0 8 4 - - 10 -
12.10.2019 11:00:00 21,4 16,5 4 2 - 1024,9 10 0,0
12.10.2019 10:00:00 19,0 15,0 8 4 ENE - 10 -
12.10.2019 09:00:00 17,0 15,0 5 3 NNE - 10 -
12.10.2019 08:00:00 16,1 14,7 4 2 - 1023,7 10 -
12.10.2019 07:00:00 15,0 14,0 4 2 - - 10 -
12.10.2019 06:00:00 15,0 14,0 4 2 NE - 10 -
12.10.2019 05:00:00 16,0 15,0 4 2 - 1023,6 10 0,0
12.10.2019 04:00:00 15,0 14,0 2 1 N - 10 -
12.10.2019 03:00:00 16,0 15,0 4 2 NNE - 10 -
12.10.2019 02:00:00 16,1 14,6 2 1 ENE 1023,4 10 -
12.10.2019 01:00:00 18,0 16,0 2 1 - - 10 -
12.10.2019 00:00:00 18,0 16,0 2 1 - - 10 -
11.10.2019 23:00:00 18,9 16,2 4 2 - 1023,1 10 0,0

tt = temperature
td = dewpoint
ff = wind speed
dd = wind direction
ppp = reduced air pressure
vv = visibility
rr = precipitation

Next stations